Regional Weather Roundup
Issued by NWS Midland/Odessa, TX

Skip options and go directly to product.
Home | Oldest Version | Next Version | Current Version | All | Text Only | Save Text | Print | Product List | Glossary On

Skip product version selection by date and time.   
080
ASUS44 KMAF 231810
RWRMAF
MIDLAND AREA WEATHER ROUNDUP
NATIONAL WEATHER SERVICE MIDLAND TX
100 PM CDT THU OCT 23 2014

...IN SOUTHWEST TEXAS AND SOUTHEAST NEW MEXICO...

CITY           SKY/WX    TMP DP  RH WIND       PRES   REMARKS
ALPINE         PTSUNNY   74  55  51 CALM      30.29F
ANDREWS        CLOUDY    63  61  95 CALM      30.19F
ARTESIA        NOT AVBL
BIG SPRING     CLOUDY    66  60  80 SW3       30.20S
CARLSBAD       CLOUDY    63  58  83 CALM      30.18F HAZE
DRYDEN           N/A     69  61  75 S7        30.16F
FORT STOCKTON  SUNNY     77  58  51 CALM      30.18S
GUAD PASS      SUNNY     70  55  59 SW16      30.30F
HOBBS          SUNNY     66  63  88 SW3       30.20F
MARFA          MOSUNNY   72  57  60 SW3       30.28F
MIDLAND AIRPK  SUNNY     71  60  70 CALM      30.18F
MIDLAND INTL   SUNNY     73  60  63 VRB3      30.17F
ODESSA         SUNNY     69  59  70 VRB3      30.18F
PECOS          SUNNY     65  61  87 CALM      30.18S
PRESIDIO       FAIR      74  60  60 CALM      30.18F
SEMINOLE       CLOUDY    62  62  99 CALM      30.20F
SNYDER         CLOUDY    63  59  88 S8        30.18F
WINK           MOSUNNY   70  50  49 CALM      30.17S
$$
...OTHER STATIONS IN TEXAS...

CITY           SKY/WX    TMP DP  RH WIND       PRES   REMARKS
ABILENE        SUNNY     78  59  51 S12       30.15F
AMARILLO       SUNNY     71  57  61 VRB6      30.14F
AUSTIN         MOSUNNY   79  60  52 CALM      30.13F
BROWNSVILLE    MOSUNNY   83  68  60 N7        30.07
CORPUS CHRISTI PTSUNNY   79  64  60 NE8       30.10F
DALLAS FTW     MOSUNNY   73  55  53 S9        30.14F
DEL RIO        PTSUNNY   74  66  76 E7        30.14F
EL PASO        MOSUNNY   71  55  56 CALM      30.22F
HOUSTON INT    MOSUNNY   74  54  49 VRB7      30.13F
LUBBOCK        CLOUDY    61  57  87 SW7       30.17F
SAN ANGELO     CLOUDY    74  62  66 SW13      30.15F
SAN ANTONIO    MOSUNNY   78  58  49 S3        30.14F
WACO           MOSUNNY   76  57  51 VRB6      30.14F
WICHITA FALLS  NOT AVBL
$$
...OTHER LOCATIONS IN NEW MEXICO...

CITY           SKY/WX    TMP DP  RH WIND       PRES   REMARKS
ALAMAGORDO     NOT AVBL
ALBUQUERQUE    MOSUNNY   65  46  50 SW5       30.30S
CANNON AFB     SUNNY     76  48  36 NW13G21   30.16F
CLOVIS         SUNNY     75  46  35 NW9       30.19F
HOLLOMAN AFB   SUNNY     73  51  46 SW1       30.21F
ROSWELL        SUNNY     67  57  70 VRB6      30.18F
RUIDOSO        NOT AVBL
SANTA FE       SUNNY     65  33  30 N10       30.31F
TRUTH OR CONSE SUNNY     71  45  39 NE5       30.25F
TUCUMCARI      SUNNY     73  43  33 VRB5      30.13F
$$

USA.gov is the U.S. government's official web portal to all federal, state and local government web resources and services.